EW8926 Weather Reports


Display with metric or nautical units.
time (UTC)temp
F
wind
direction
speed
MPH
gust
MPH
rain 1hr
in
rain 24hr
in
rain mn
in
humidity
%
barometer
mb
20260506002104 53 126 0.0 0.0 0.00 0.57 0.00 97 1012.4
20260506001604 53 126 0.0 0.0 0.00 0.57 0.00 97 1012.4
20260506001104 53 126 0.0 0.0 0.00 0.57 0.00 97 1012.6
20260506000606 53 126 0.0 0.0 0.00 0.57 0.00 97 1012.7
20260506000106 52 126 0.0 0.0 0.00 0.57 0.00 97 1012.7
20260505235104 52 126 0.0 0.0 0.00 0.57 0.00 97 1012.7
20260505234605 52 126 0.0 0.0 0.00 0.57 0.00 96 1012.7
20260505234104 53 126 0.0 0.0 0.00 0.57 0.00 96 1012.7
20260505233604 53 126 0.0 0.0 0.00 0.57 0.00 96 1012.7
20260505233105 53 126 0.0 0.0 0.00 0.57 0.00 96 1012.7
20260505232604 53 125 0.0 0.0 0.00 0.57 0.00 96 1012.8
20260505232104 53 125 0.0 0.0 0.00 0.57 0.00 96 1012.8
20260505231604 53 125 0.0 0.0 0.00 0.57 0.00 96 1012.8
20260505231105 53 125 0.0 0.0 0.00 0.57 0.00 96 1012.9
20260505230605 53 125 0.0 0.0 0.00 0.57 0.00 96 1012.9
20260505225603 54 125 0.0 0.0 0.00 0.57 0.00 96 1013.0
20260505225104 54 125 0.0 0.0 0.00 0.57 0.00 96 1013.1
20260505224104 54 125 0.0 0.0 0.00 0.57 0.00 96 1013.2
20260505223604 54 125 0.0 0.0 0.00 0.57 0.00 95 1013.2
20260505222604 54 125 0.0 0.0 0.00 0.57 0.00 95 1013.2
20260505222104 55 125 0.0 0.0 0.00 0.57 0.00 95 1013.2
20260505221103 55 125 0.0 0.0 0.00 0.57 0.00 95 1013.3
20260505220105 55 125 0.0 0.0 0.00 0.57 0.00 96 1013.4
20260505215107 55 125 0.0 0.0 0.00 0.57 0.57 95 1013.5
20260505214604 55 125 0.0 0.0 0.00 0.57 0.57 95 1013.5
20260505213604 55 125 0.0 0.0 0.00 0.57 0.57 95 1013.6
20260505213104 55 125 0.0 0.0 0.00 0.57 0.57 95 1013.6
20260505212104 55 125 0.0 0.0 0.00 0.57 0.57 95 1013.6
20260505211604 55 125 0.0 0.0 0.00 0.57 0.57 95 1013.6
20260505205103 55 125 0.0 0.0 0.00 0.57 0.57 94 1013.8
20260505204604 55 125 0.0 0.0 0.00 0.57 0.57 94 1013.8
20260505203604 56 125 0.0 0.0 0.00 0.57 0.57 93 1013.8
20260505203104 56 125 0.0 0.0 0.00 0.57 0.57 93 1013.8
20260505202604 56 125 0.0 0.0 0.00 0.57 0.57 92 1013.7
20260505202104 56 125 0.0 0.0 0.00 0.57 0.57 92 1013.7
20260505201105 56 125 0.0 0.0 0.00 0.57 0.57 92 1013.8
20260505200104 56 125 0.0 0.0 0.00 0.57 0.57 92 1013.9
20260505195111 57 125 0.0 0.0 0.00 0.57 0.57 91 1013.7
20260505194604 57 125 0.0 0.0 0.00 0.57 0.57 91 1013.7
20260505193619 57 125 0.0 0.0 0.00 0.57 0.57 91 1013.7
20260505191604 57 125 0.0 0.0 0.00 0.57 0.57 91 1013.6
20260505191107 57 125 0.0 0.0 0.00 0.57 0.57 90 1013.6
20260505190603 57 125 0.0 0.0 0.01 0.57 0.57 89 1013.6
20260505190104 58 125 0.0 0.0 0.01 0.57 0.57 90 1013.6
20260505185607 58 125 0.0 0.0 0.01 0.57 0.57 90 1013.6
20260505185104 58 125 0.0 0.0 0.01 0.57 0.57 90 1013.6
20260505184604 58 125 0.0 0.0 0.01 0.57 0.57 90 1013.6
20260505183604 58 125 0.0 0.0 0.01 0.57 0.57 90 1013.5
20260505183104 58 125 0.0 0.0 0.01 0.57 0.57 89 1013.5
20260505181605 58 125 0.0 0.0 0.01 0.57 0.57 89 1013.4
20260505181108 58 125 0.0 0.0 0.01 0.57 0.57 88 1013.4
20260505180604 58 125 0.0 0.0 0.00 0.56 0.56 88 1013.4
20260505180104 58 125 0.0 0.0 0.00 0.56 0.56 87 1013.4
20260505175607 58 125 0.0 0.0 0.00 0.56 0.56 87 1013.3
20260505175110 58 125 0.0 0.0 0.00 0.56 0.56 87 1013.3
20260505174604 58 125 0.0 0.0 0.00 0.56 0.56 87 1013.3
20260505174104 58 125 0.0 0.0 0.00 0.56 0.56 86 1013.3
20260505173604 58 125 0.0 0.0 0.00 0.56 0.56 86 1013.3
20260505173104 58 125 2.0 0.0 0.00 0.56 0.56 86 1013.3
20260505172603 58 125 2.0 2.0 0.00 0.56 0.56 86 1013.4
20260505171604 59 125 2.0 2.0 0.00 0.56 0.56 86 1013.4
20260505171105 59 123 2.0 3.0 0.00 0.56 0.56 86 1013.4
20260505170604 59 123 2.0 5.0 0.00 0.56 0.56 86 1013.4
20260505170104 59 125 2.0 3.0 0.00 0.56 0.56 85 1013.4
20260505165611 59 125 2.0 3.0 0.00 0.56 0.56 85 1013.5
20260505165103 59 124 2.0 3.0 0.00 0.56 0.56 85 1013.5
20260505164604 59 124 2.0 3.0 0.00 0.56 0.56 84 1013.5
20260505164104 59 124 2.0 2.0 0.00 0.56 0.56 84 1013.5
20260505163604 59 124 2.0 5.0 0.00 0.56 0.56 85 1013.5
20260505162604 60 132 2.0 2.0 0.00 0.56 0.56 84 1013.5
20260505162105 60 132 2.0 2.0 0.00 0.56 0.56 83 1013.5
20260505161604 60 132 2.0 3.0 0.00 0.56 0.56 83 1013.5
20260505161106 60 137 2.0 3.0 0.00 0.56 0.56 83 1013.5
20260505160606 60 126 2.0 3.0 0.00 0.56 0.56 83 1013.5
20260505160104 60 126 2.0 3.0 0.00 0.56 0.56 82 1013.5
20260505152609 60 130 2.0 3.0 0.00 0.56 0.56 82 1013.8
20260505151604 60 134 2.0 3.0 0.00 0.56 0.56 82 1013.8
20260505151104 60 130 2.0 3.0 0.00 0.56 0.56 82 1013.8
20260505150604 60 128 2.0 5.0 0.00 0.56 0.56 81 1013.8
20260505140607 61 19 2.0 2.0 0.00 0.56 0.56 81 1014.0
20260505140105 61 313 1.0 5.0 0.00 0.56 0.56 81 1014.0
20260505130105 59 101 2.0 5.0 0.00 0.56 0.56 85 1014.4
20260505124604 59 133 1.0 6.0 0.00 0.56 0.56 84 1014.5
20260505124104 59 30 2.0 3.0 0.00 0.56 0.56 85 1014.5
20260505123604 58 138 2.0 3.0 0.00 0.56 0.56 87 1014.5
20260505123104 58 141 2.0 6.0 0.00 0.56 0.56 88 1014.5
20260505122604 57 116 2.0 5.0 0.00 0.56 0.56 90 1014.6
20260505121604 56 118 2.0 5.0 0.00 0.56 0.56 89 1014.7
20260505121104 56 126 2.0 3.0 0.00 0.56 0.56 90 1014.6
20260505120605 56 135 2.0 3.0 0.00 0.56 0.56 89 1014.6
20260505115104 56 138 1.0 3.0 0.00 0.56 0.56 90 1014.7
20260505114605 56 246 1.0 2.0 0.00 0.56 0.56 91 1014.7
20260505114106 56 246 1.0 3.0 0.00 0.56 0.56 92 1014.7
20260505113104 56 294 1.0 2.0 0.00 0.56 0.56 93 1014.7
20260505112119 56 294 1.0 2.0 0.00 0.56 0.56 94 1014.8
20260505111604 55 294 1.0 2.0 0.00 0.56 0.56 95 1014.8
20260505111104 55 345 2.0 2.0 0.00 0.56 0.56 95 1014.9
20260505110606 55 355 2.0 2.0 0.00 0.56 0.56 95 1014.9
20260505110106 55 111 1.0 3.0 0.00 0.56 0.56 95 1014.9
20260505101607 54 317 2.0 5.0 0.00 0.56 0.56 96 1015.0
20260505101104 54 143 2.0 5.0 0.00 0.56 0.56 96 1014.9
20260505100611 54 268 2.0 3.0 0.00 0.56 0.56 96 1014.9
20260505100104 54 323 1.0 5.0 0.00 0.56 0.56 96 1014.9
20260505095106 54 280 1.0 3.0 0.00 0.56 0.56 96 1014.8
20260505094604 54 337 1.0 3.0 0.00 0.56 0.56 96 1014.8
20260505094105 54 335 1.0 2.0 0.00 0.56 0.56 96 1014.9
20260505093104 53 213 2.0 3.0 0.00 0.56 0.56 96 1014.9
20260505092605 53 224 2.0 3.0 0.00 0.56 0.56 96 1014.8
20260505092104 53 283 1.0 3.0 0.00 0.56 0.56 96 1014.8
20260505091604 53 264 1.0 5.0 0.00 0.56 0.56 96 1014.8
20260505090604 53 335 2.0 3.0 0.00 0.56 0.56 96 1014.8
20260505090105 53 284 1.0 3.0 0.00 0.56 0.56 96 1014.8
20260505085605 53 246 1.0 2.0 0.00 0.56 0.56 97 1014.8
20260505085105 53 300 1.0 2.0 0.00 0.56 0.56 97 1014.8
20260505084604 53 301 1.0 5.0 0.00 0.56 0.56 96 1014.8
20260505084104 53 290 1.0 2.0 0.00 0.56 0.56 97 1014.9
20260505083105 53 288 1.0 3.0 0.00 0.56 0.56 97 1015.0
20260505082605 53 198 1.0 5.0 0.00 0.56 0.56 97 1014.8
20260505082104 53 342 1.0 2.0 0.00 0.56 0.56 97 1014.7
20260505081603 53 342 0.0 2.0 0.00 0.56 0.56 97 1014.7
20260505081104 53 342 0.0 2.0 0.00 0.56 0.56 97 1014.7
20260505080605 53 342 0.0 0.0 0.00 0.56 0.56 97 1014.7
20260505080105 53 342 1.0 0.0 0.00 0.56 0.56 97 1014.7
20260505075604 53 342 1.0 2.0 0.00 0.56 0.56 97 1014.6
20260505075104 53 342 1.0 2.0 0.00 0.56 0.56 97 1014.6
20260505074607 53 342 1.0 2.0 0.00 0.56 0.56 97 1014.6
20260505074103 53 342 2.0 2.0 0.00 0.56 0.56 97 1014.6
20260505073604 53 342 2.0 2.0 0.00 0.56 0.56 97 1014.6
20260505073105 53 342 2.0 2.0 0.00 0.56 0.56 97 1014.6
20260505072605 53 343 2.0 2.0 0.00 0.56 0.56 97 1014.6
20260505072105 52 343 1.0 3.0 0.00 0.56 0.56 97 1014.6
20260505071614 53 314 1.0 3.0 0.00 0.56 0.56 97 1014.6
20260505071104 52 315 2.0 0.0 0.00 0.56 0.56 97 1014.7
20260505070108 52 315 2.0 3.0 0.00 0.56 0.56 96 1014.8
20260505065603 52 315 2.0 3.0 0.00 0.56 0.56 96 1014.7
20260505065104 52 315 2.0 3.0 0.00 0.56 0.56 96 1014.6
20260505064604 52 332 2.0 6.0 0.00 0.56 0.56 96 1014.6
20260505063106 52 340 1.0 5.0 0.00 0.56 0.56 96 1014.6
20260505062606 52 337 1.0 3.0 0.01 0.56 0.56 96 1014.5
20260505061604 52 52 0.0 2.0 0.03 0.56 0.56 96 1014.5
20260505061104 53 53 0.0 2.0 0.05 0.56 0.56 96 1014.4
20260505060104 53 56 1.0 2.0 0.08 0.56 0.56 96 1014.3
20260505055104 53 0 1.0 2.0 0.11 0.56 0.56 96 1014.5
20260505054604 53 0 0.0 2.0 0.13 0.56 0.56 96 1014.5
20260505053604 53 0 1.0 2.0 0.17 0.56 0.56 96 1014.1
20260505053104 53 0 1.0 2.0 0.19 0.56 0.56 96 1014.1
20260505052603 53 0 1.0 3.0 0.20 0.56 0.56 96 1014.2
20260505051607 53 303 2.0 3.0 0.23 0.54 0.54 96 1014.3
20260505051105 53 296 2.0 6.0 0.23 0.52 0.52 96 1014.4
20260505050604 53 302 2.0 6.0 0.23 0.49 0.49 96 1014.4
20260505050105 53 317 2.0 6.0 0.22 0.48 0.48 96 1014.4
20260505041603 53 311 2.0 5.0 0.14 0.30 0.30 95 1014.4
20260505041104 53 318 2.0 10.0 0.13 0.28 0.28 95 1014.5
20260505040604 53 356 2.0 5.0 0.11 0.26 0.26 95 1014.5
20260505035604 53 279 1.0 5.0 0.11 0.25 0.25 95 1014.5
20260505034604 54 178 2.0 3.0 0.09 0.22 0.22 95 1014.5
20260505033604 54 314 1.0 5.0 0.07 0.20 0.20 95 1014.4
20260505033105 54 299 2.0 2.0 0.05 0.18 0.18 94 1014.4
20260505032604 54 295 2.0 2.0 0.05 0.17 0.17 94 1014.3
20260505032104 54 306 1.0 5.0 0.05 0.16 0.16 94 1014.3
20260505031603 54 307 1.0 3.0 0.06 0.16 0.16 94 1014.3
20260505031104 54 305 1.0 2.0 0.06 0.15 0.15 94 1014.5
20260505030604 54 286 1.0 2.0 0.06 0.15 0.15 94 1014.6
20260505030104 54 190 1.0 2.0 0.06 0.14 0.14 94 1014.6
20260505025605 54 148 0.0 2.0 0.06 0.14 0.14 94 1014.7
20260505024615 54 148 1.0 1.0 0.06 0.13 0.13 93 1014.7
20260505024104 54 148 1.0 2.0 0.06 0.13 0.13 93 1014.8
20260505023604 54 148 1.0 2.0 0.08 0.13 0.13 93 1014.9
20260505022603 54 237 1.0 2.0 0.07 0.12 0.12 93 1015.0
20260505022104 54 237 1.0 2.0 0.07 0.11 0.11 92 1015.1
20260505021604 54 226 0.0 2.0 0.06 0.10 0.10 92 1015.1
20260505021104 54 159 1.0 2.0 0.05 0.09 0.09 92 1015.2
20260505020603 54 159 1.0 2.0 0.06 0.09 0.09 91 1015.2
20260505020104 54 159 1.0 2.0 0.06 0.08 0.08 91 1015.2
20260505015111 55 237 1.0 2.0 0.06 0.07 0.07 90 1015.3
20260505014606 55 163 1.0 2.0 0.07 0.07 0.07 90 1015.3
20260505014104 55 174 2.0 2.0 0.07 0.07 0.07 89 1015.4
20260505013604 55 247 2.0 2.0 0.05 0.05 0.05 88 1015.5
20260505013104 55 318 1.0 5.0 0.05 0.05 0.05 88 1015.5
20260505012604 55 259 0.0 2.0 0.05 0.05 0.05 87 1015.6
20260505012106 56 270 1.0 3.0 0.04 0.04 0.04 86 1015.6
20260505011603 56 324 1.0 2.0 0.04 0.04 0.04 86 1015.6
20260505011104 56 324 2.0 2.0 0.04 0.04 0.04 85 1015.7
20260505010604 56 324 2.0 2.0 0.03 0.03 0.03 85 1015.7
20260505010104 57 324 2.0 2.0 0.02 0.02 0.02 84 1015.7
20260505005604 57 324 2.0 3.0 0.01 0.01 0.01 82 1015.9
20260505005104 57 326 2.0 5.0 0.01 0.01 0.01 81 1016.0
20260505004604 57 315 2.0 3.0 0.00 0.00 0.00 80 1016.0
20260505004105 57 228 2.0 5.0 0.00 0.00 0.00 79 1016.2
20260505003605 58 235 2.0 3.0 0.00 0.00 0.00 78 1016.3
20260505003104 58 344 2.0 3.0 0.00 0.00 0.00 77 1016.3